• In Belarus
  • List of Countries
  • For 7 days
  • Water Temperature
  • Satellite Maps
  • Weather Map
  • Weather Widgets
  • user-avatar
    Login

    Hourly Weather Krasnaya Gorka

    Today, 22 June, Friday

    Time Temperature Precipitation Wind Pressure Humidity
    00:00 +17°C° 0 mm 2 mps 745 mmHg 87%
    01:00 +16°C° 0 mm 2 mps 745 mmHg 88%
    02:00 +16°C° 0 mm 2 mps 745 mmHg 90%
    03:00 +17°C° 0 mm 2 mps 745 mmHg 89%
    04:00 +17°C° 0 mm 3 mps 745 mmHg 89%
    05:00 +18°C° 0 mm 3 mps 744 mmHg 88%
    06:00 +19°C° 0 mm 4 mps 744 mmHg 84%
    07:00 +21°C° 0 mm 4 mps 744 mmHg 79%
    08:00 +23°C° 0 mm 5 mps 744 mmHg 75%
    09:00 +25°C° 0 mm 5 mps 744 mmHg 71%
    10:00 +26°C° 0 mm 5 mps 744 mmHg 68%
    11:00 +27°C° 0 mm 5 mps 744 mmHg 65%
    12:00 +28°C° 0 mm 5 mps 743 mmHg 64%
    13:00 +28°C° 0 mm 5 mps 743 mmHg 63%
    14:00 +28°C° 0 mm 5 mps 743 mmHg 62%
    15:00 +28°C° 0 mm 5 mps 743 mmHg 65%
    16:00 +28°C° 0 mm 4 mps 743 mmHg 69%
    17:00 +28°C° 0 mm 4 mps 742 mmHg 72%
    18:00 +26°C° 0 mm 3 mps 742 mmHg 77%
    19:00 +24°C° 0 mm 3 mps 743 mmHg 81%
    20:00 +22°C° 0 mm 3 mps 743 mmHg 86%
    21:00 +21°C° 0.1 mm 3 mps 743 mmHg 87%
    22:00 +20°C° 0.1 mm 3 mps 743 mmHg 89%
    23:00 +20°C° 0.1 mm 2 mps 743 mmHg 90%

    Tomorrow, 23 June, Saturday

    Time Temperature Precipitation Wind Pressure Humidity
    00:00 +19°C° 0 mm 2 mps 743 mmHg 90%
    01:00 +19°C° 0 mm 2 mps 743 mmHg 90%
    02:00 +19°C° 0 mm 2 mps 743 mmHg 91%
    03:00 +19°C° 0 mm 3 mps 743 mmHg 90%
    04:00 +19°C° 0 mm 3 mps 742 mmHg 88%
    05:00 +19°C° 0 mm 3 mps 742 mmHg 87%
    06:00 +21°C° 0 mm 4 mps 742 mmHg 83%
    07:00 +22°C° 0 mm 4 mps 742 mmHg 78%
    08:00 +25°C° 0 mm 5 mps 742 mmHg 74%
    09:00 +26°C° 0.1 mm 5 mps 742 mmHg 71%
    10:00 +27°C° 0.1 mm 5 mps 741 mmHg 67%
    11:00 +28°C° 0.1 mm 5 mps 741 mmHg 64%
    12:00 +28°C° 0.3 mm 6 mps 741 mmHg 63%
    13:00 +29°C° 0.3 mm 6 mps 740 mmHg 62%
    14:00 +29°C° 0.3 mm 6 mps 740 mmHg 61%
    15:00 +28°C° 0.5 mm 6 mps 740 mmHg 66%
    16:00 +28°C° 0.5 mm 5 mps 740 mmHg 71%
    17:00 +27°C° 0.5 mm 4 mps 739 mmHg 77%
    18:00 +25°C° 1.2 mm 4 mps 739 mmHg 80%
    19:00 +23°C° 1.2 mm 4 mps 739 mmHg 84%
    20:00 +21°C° 1.2 mm 4 mps 739 mmHg 87%
    21:00 +20°C° 1.3 mm 4 mps 739 mmHg 89%
    22:00 +20°C° 1.3 mm 4 mps 739 mmHg 92%
    23:00 +19°C° 1.3 mm 4 mps 739 mmHg 94%

    Day after tomorrow, 24 June, Sunday

    Time Temperature Precipitation Wind Pressure Humidity
    00:00 +19°C° 0.2 mm 3 mps 739 mmHg 94%
    01:00 +19°C° 0.2 mm 3 mps 739 mmHg 94%
    02:00 +19°C° 0.2 mm 3 mps 739 mmHg 94%
    03:00 +19°C° 0 mm 3 mps 739 mmHg 94%
    04:00 +19°C° 0 mm 3 mps 739 mmHg 94%
    05:00 +19°C° 0 mm 3 mps 739 mmHg 94%
    06:00 +19°C° 0.1 mm 4 mps 739 mmHg 93%
    07:00 +19°C° 0.1 mm 4 mps 740 mmHg 92%
    08:00 +19°C° 0.1 mm 5 mps 740 mmHg 91%
    09:00 +19°C° 0.1 mm 5 mps 741 mmHg 87%
    10:00 +17°C° 0.1 mm 5 mps 741 mmHg 84%
    11:00 +17°C° 0.1 mm 5 mps 742 mmHg 81%
    12:00 +19°C° 0 mm 5 mps 742 mmHg 76%
    13:00 +19°C° 0 mm 5 mps 743 mmHg 72%
    14:00 +20°C° 0 mm 5 mps 744 mmHg 68%
    15:00 +20°C° 0 mm 5 mps 744 mmHg 68%
    16:00 +20°C° 0 mm 4 mps 744 mmHg 68%
    17:00 +20°C° 0 mm 4 mps 745 mmHg 69%
    18:00 +18°C° 0 mm 3 mps 745 mmHg 73%
    19:00 +17°C° 0 mm 2 mps 745 mmHg 78%
    20:00 +16°C° 0 mm 2 mps 746 mmHg 82%
    21:00 +15°C° 0 mm 1 mps 746 mmHg 84%
    22:00 +14°C° 0 mm 1 mps 746 mmHg 86%
    23:00 +13°C° 0 mm 1 mps 747 mmHg 88%

    25 June, Monday

    Time Temperature Precipitation Wind Pressure Humidity
    00:00 +13°C° 0 mm 1 mps 747 mmHg 88%
    01:00 +13°C° 0 mm 1 mps 747 mmHg 88%
    02:00 +12°C° 0 mm 1 mps 748 mmHg 88%
    03:00 +12°C° 0 mm 0 mps 748 mmHg 87%
    04:00 +13°C° 0 mm 0 mps 748 mmHg 85%
    05:00 +14°C° 0 mm 0 mps 748 mmHg 83%
    06:00 +15°C° 0 mm 0 mps 749 mmHg 79%
    07:00 +16°C° 0 mm 0 mps 749 mmHg 74%
    08:00 +18°C° 0 mm 0 mps 749 mmHg 70%
    09:00 +21°C° 0 mm 1 mps 749 mmHg 66%
    10:00 +22°C° 0 mm 1 mps 749 mmHg 63%
    11:00 +23°C° 0 mm 1 mps 749 mmHg 60%
    12:00 +23°C° 0.2 mm 1 mps 749 mmHg 59%
    13:00 +23°C° 0.2 mm 1 mps 749 mmHg 59%
    14:00 +24°C° 0.2 mm 2 mps 749 mmHg 59%
    15:00 +23°C° 0.2 mm 1 mps 749 mmHg 61%
    16:00 +23°C° 0.2 mm 1 mps 749 mmHg 63%
    17:00 +23°C° 0.2 mm 1 mps 749 mmHg 65%
    18:00 +21°C° 0.1 mm 1 mps 749 mmHg 70%
    19:00 +20°C° 0.1 mm 1 mps 749 mmHg 76%
    20:00 +16°C° 0.1 mm 0 mps 750 mmHg 81%
    21:00 +16°C° 0 mm 1 mps 750 mmHg 83%
    22:00 +16°C° 0 mm 1 mps 750 mmHg 84%
    23:00 +15°C° 0 mm 1 mps 750 mmHg 85%

    26 June, Tuesday

    Time Temperature Precipitation Wind Pressure Humidity
    00:00 +15°C° 0 mm 1 mps 750 mmHg 86%
    01:00 +14°C° 0 mm 1 mps 750 mmHg 87%
    02:00 +14°C° 0 mm 1 mps 750 mmHg 88%
    03:00 +13°C° 0 mm 0 mps 750 mmHg 87%
    04:00 +14°C° 0 mm 0 mps 750 mmHg 87%
    05:00 +15°C° 0 mm 0 mps 750 mmHg 86%
    06:00 +16°C° 0 mm 0 mps 750 mmHg 81%
    07:00 +18°C° 0 mm 0 mps 750 mmHg 76%
    08:00 +19°C° 0 mm 0 mps 750 mmHg 71%
    09:00 +21°C° 0 mm 0 mps 750 mmHg 66%
    10:00 +22°C° 0 mm 0 mps 750 mmHg 61%
    11:00 +23°C° 0 mm 0 mps 750 mmHg 57%
    12:00 +23°C° 0 mm 0 mps 750 mmHg 55%
    13:00 +23°C° 0 mm 0 mps 750 mmHg 54%
    14:00 +25°C° 0 mm 1 mps 750 mmHg 53%
    15:00 +25°C° 0 mm 1 mps 750 mmHg 55%
    16:00 +25°C° 0 mm 1 mps 749 mmHg 57%
    17:00 +25°C° 0 mm 1 mps 749 mmHg 59%
    18:00 +23°C° 0 mm 1 mps 749 mmHg 63%
    19:00 +21°C° 0 mm 1 mps 749 mmHg 67%
    20:00 +20°C° 0 mm 1 mps 749 mmHg 71%
    21:00 +19°C° 0 mm 1 mps 749 mmHg 73%
    22:00 +17°C° 0 mm 2 mps 749 mmHg 74%
    23:00 +17°C° 0 mm 2 mps 749 mmHg 76%

    27 June, Wednesday

    Time Temperature Precipitation Wind Pressure Humidity
    00:00 +16°C° 0 mm 2 mps 749 mmHg 77%
    01:00 +16°C° 0 mm 2 mps 749 mmHg 78%
    02:00 +16°C° 0 mm 2 mps 749 mmHg 79%
    03:00 +16°C° 0 mm 2 mps 749 mmHg 81%
    04:00 +16°C° 0 mm 2 mps 749 mmHg 83%
    05:00 +16°C° 0 mm 3 mps 749 mmHg 84%
    06:00 +18°C° 0 mm 3 mps 749 mmHg 80%
    07:00 +20°C° 0 mm 4 mps 749 mmHg 76%
    08:00 +21°C° 0 mm 4 mps 749 mmHg 73%
    09:00 +23°C° 0 mm 4 mps 748 mmHg 69%
    10:00 +25°C° 0 mm 4 mps 748 mmHg 65%
    11:00 +26°C° 0 mm 4 mps 748 mmHg 61%
    12:00 +26°C° 0.1 mm 4 mps 748 mmHg 64%
    13:00 +26°C° 0.1 mm 4 mps 747 mmHg 66%
    14:00 +26°C° 0.1 mm 4 mps 747 mmHg 68%
    15:00 +25°C° 1.3 mm 4 mps 747 mmHg 74%
    16:00 +23°C° 1.3 mm 4 mps 746 mmHg 81%
    17:00 +22°C° 1.3 mm 4 mps 746 mmHg 87%
    18:00 +21°C° 0.8 mm 4 mps 746 mmHg 89%
    19:00 +21°C° 0.8 mm 4 mps 746 mmHg 91%
    20:00 +20°C° 0.8 mm 4 mps 745 mmHg 94%
    21:00 +20°C° 0.8 mm 4 mps 745 mmHg 94%
    22:00 +20°C° 0.8 mm 4 mps 745 mmHg 94%
    23:00 +20°C° 0.8 mm 5 mps 745 mmHg 94%
    Show more